Location: Dewitt
(38.0677°N, 122.5397°W)
Time: 03:03:51
(UTC+00:00)

Daily predictions for brighter satellites

Satellite Brightness Start Highest point End
(mag) Time Altitude Azimuth Time Altitude Azimuth Time Altitude Azimuth
ATLAS 2AS CENTAUR R/B 3.4 03:44:46 10° S 03:52:02 43° ESE 03:59:18 10° NE
CZ-4 R/B 4.1 03:51:22 10° SW 03:54:31 21° W 03:57:43 10° NW
NOSS 3-2 (C) 4.3 03:49:09 10° NNW 03:56:54 67° NE 04:05:32 10° SE
RESURS DK-1 4.3 03:55:41 10° ESE 03:57:06 12° E 03:58:31 10° E
Cosmos 1825 Rocket 3.5 03:53:12 10° S 03:57:31 74° E 04:01:51 10° N
Cosmos-2242 3.0 03:54:17 10° N 03:58:34 72° E 04:02:48 10° SSE
H-2A R/B 3.2 03:47:20 10° WSW 03:58:50 28° SSW 04:02:05 10° SE
Cosmos 44 Rocket 3.8 04:07:42 10° S 04:12:29 41° ESE 04:17:23 10° NE
In-Cosmos 22 Rocket 4.3 04:08:53 10° SSW 04:14:11 78° W 04:19:32 10° N
CENTAUR R/B 3.4 04:07:06 10° NW 04:15:33 85° WSW 04:24:31 10° SSE
ERS-2 2.2 04:12:07 10° NNE 04:15:41 54° E 04:19:15 10° S
USA 267 4.1 04:11:39 10° ENE 04:16:52 25° ESE 04:22:04 10° S
Helios 1A Rocket 3.3 04:15:25 10° S 04:19:23 64° WSW 04:23:25 10° NNW
Cosmos 1634 Rocket 4.0 04:14:07 10° N 04:20:26 80° E 04:26:39 10° S
Ariane Rocket 3.0 04:18:19 10° SSE 04:23:22 69° ENE 04:28:25 10° N
Cosmos 1242 Rocket 2.9 04:21:43 10° N 04:25:11 44° ENE 04:27:48 15° SSE
IRS-1A Rocket 4.2 04:22:00 10° SSE 04:27:34 81° ENE 04:33:06 10° NNW
SEDSat Delta rocket 3.9 04:24:31 10° SW 04:27:52 25° SSE 04:29:54 17° SE
OAO 2 Rocket 3.4 04:23:25 10° W 04:28:23 61° S 04:32:23 15° ESE
Cosmos 2221 3.3 04:26:31 10° NNE 04:30:26 33° ENE 04:33:03 18° SE
USA 238 DEB 4.2 04:23:19 10° NW 04:30:38 69° WSW 04:38:12 10° SSE
USA 307 2.9 04:26:22 10° NW 04:30:39 85° SW 04:33:45 18° SE
USA 238 4.2 04:23:25 10° NW 04:30:44 69° WSW 04:38:19 10° SSE
MOS 1 4.4 04:35:06 10° S 04:40:46 76° WSW 04:46:27 10° NNW
Hubble Space Telescope 2.2 04:38:54 10° SW 04:41:53 19° S 04:42:35 19° SSE
IGS 5A 3.4 04:40:41 17° SSE 04:43:49 71° ENE 04:47:57 10° N
Cosmos 1606 3.6 04:41:34 10° NNE 04:44:56 31° ENE 04:46:13 24° ESE
Terra 3.9 04:43:36 10° E 04:45:19 12° ENE 04:47:09 10° NE
USA 305 3.3 04:43:12 10° NW 04:47:17 53° SW 04:49:46 22° SSE
USA 308 3.2 04:43:18 10° NW 04:47:29 59° SW 04:49:57 23° SSE
Cosmos 1697 Rocket 2.9 04:42:02 10° NNW 04:47:38 57° ENE 04:51:14 22° SE
Cosmos 2082 Rocket 2.2 04:46:10 10° S 04:51:40 62° ESE 04:57:15 10° NNE
Resurs 1-3 4.4 04:48:46 10° S 04:53:00 48° W 04:57:15 10° NNW
SPOT 3 Rocket 3.6 04:50:07 19° SSE 04:53:52 70° ENE 04:59:04 10° N
Cosmos 1833 Rocket 3.3 04:49:41 10° SW 04:55:13 59° WNW 05:00:49 10° NNE
Cosmos 773 Rocket 3.9 04:51:54 10° SSW 04:57:08 82° ESE 05:02:19 10° NNE
Cosmos 2151 3.8 05:00:21 29° ESE 05:01:05 31° E 05:04:49 10° NNE
Cosmos 1825 4.2 05:02:14 10° SW 05:05:28 28° WNW 05:08:44 10° NNW
Cosmos 2058 3.9 05:02:54 10° SSW 05:06:54 46° W 05:10:57 10° N
Landsat 7 4.0 05:06:57 20° S 05:10:12 70° W 05:14:58 10° NNW
USA 306 4.1 05:07:26 10° WNW 05:11:14 32° SW 05:12:59 23° S
Cosmos 1842 Rocket 3.6 05:06:50 10° N 05:11:20 85° W 05:13:42 28° S
GP-B 4.0 05:08:05 10° NNE 05:11:58 29° E 05:12:19 29° E
Cosmos 2279 Rocket 4.5 05:10:29 10° NNW 05:16:32 58° W 05:22:09 12° SSW
Cosmos 1092 Rocket 4.3 05:13:56 29° SE 05:16:46 47° E 05:22:44 10° NNE
Cosmos 1076 Rocket 3.5 05:16:19 25° S 05:18:50 86° W 05:23:12 10° N
Meteor 2-3 Rocket 4.1 05:18:42 34° SE 05:20:31 45° E 05:25:54 10° NNE
Cosmos 1437 4.3 05:18:37 10° NW 05:20:57 24° W 05:21:49 21° SW
ERS-1 Rocket 3.6 05:20:52 33° ESE 05:22:16 41° ENE 05:26:57 10° N
Cosmos 2369 3.6 05:17:12 10° NNW 05:22:53 79° ENE 05:25:15 36° SSE
Spot 2 Rocket 3.6 05:21:57 37° SE 05:23:51 64° ENE 05:28:54 10° N
Resurs 01 Rocket 2.9 05:23:58 17° SSW 05:26:57 37° W 05:31:05 10° NNW
OAO 1 Rocket 4.4 05:22:57 10° WSW 05:28:14 63° S 05:29:57 41° ESE
Cosmos 1980 Rocket 2.2 05:28:12 10° NNW 05:33:49 70° ENE 05:35:39 43° SE
RESURS DK-1 3.2 05:30:34 10° SW 05:34:36 51° WNW 05:38:40 10° NNE
Cosmos 2026 Rocket 4.2 05:33:39 37° SE 05:35:53 54° E 05:42:01 10° NNE
GENESIS II 4.0 05:32:11 10° NNW 05:36:05 87° WSW 05:36:21 77° SSE
Cosmos 1538 Rocket 3.9 05:34:13 22° SSW 05:37:43 87° WNW 05:42:56 10° NNE
Cosmos 1271 Rocket 3.9 05:35:10 10° NNE 05:38:17 31° ENE 05:38:17 31° ENE
Cosmos 1633 3.9 05:37:09 23° SW 05:38:51 37° W 05:42:14 10° N
Cosmos 158 Rocket 3.8 05:37:56 45° S 05:39:24 68° ESE 05:44:35 10° NNE
USA 245 4.3 05:37:25 32° S 05:40:09 69° WSW 05:45:08 10° NNW
Cosmos 2322 Rocket 4.0 05:37:20 10° NNE 05:41:04 18° NE 05:42:47 16° ENE
ISS -0.9 05:40:29 10° N 05:42:05 13° NNE 05:43:31 10° NE
Nadezhda 4 Rocket 4.4 05:36:56 13° SSW 05:42:21 62° W 05:48:30 10° N
ATLAS 2AS CENTAUR R/B 4.1 05:35:29 10° WSW 05:43:00 46° NW 05:50:26 10° NNE
Cosmos 2098 Rocket 3.8 05:43:18 28° W 05:43:46 29° WNW 05:46:30 10° NNW
OAO 3 Copernicus 4.2 05:38:48 10° W 05:43:46 62° S 05:44:13 59° SSE
SPOT 1/Viking Rocket 4.4 05:49:42 27° SSW 05:52:03 43° W 05:57:01 10° NNW
Cosmos 1933 3.4 05:48:57 10° N 05:52:42 68° NE 05:52:42 68° NE
ARIANE 5 R/B 2.7 05:53:39 62° SSW 05:54:16 74° WSW 05:58:45 10° NNW
Cosmos 2292 Rocket 4.4 05:59:37 51° ESE 06:00:07 53° E 06:06:40 10° NNE
USA 267 3.3 05:53:41 10° NE 06:00:15 79° NW 06:06:47 10° SW
SPOT 5 2.5 06:02:36 76° WSW 06:02:42 76° W 06:07:02 10° NNW
ATLAS 3B R/B 2.8 05:57:48 10° NNW 06:04:59 75° ENE 06:07:15 48° SE
Cosmos 304 Rocket 4.0 06:00:41 10° N 06:05:19 54° ENE 06:05:19 54° ENE
CARTOSAT-1 4.4 06:05:55 40° WSW 06:06:29 42° W 06:10:35 10° NNW
SL-16 R/B 3.0 06:01:24 10° N 06:06:37 36° ENE 06:07:23 34° ENE
Cosmos 1428 Rocket 4.4 06:05:56 43° SSW 06:08:07 81° W 06:14:16 10° N
ERBS 4.3 06:09:28 10° NW 06:11:05 27° NW 06:11:05 27° NW
Cosmos 1553 Rocket 4.0 06:11:39 10° N 06:17:37 55° E 06:18:04 54° E
Cosmos 371 Rocket 3.7 06:17:44 10° NNW 06:22:24 52° WSW 06:22:26 52° WSW
Terra 1.9 06:22:29 70° W 06:22:29 70° W 06:27:12 10° NNW
Cosmos 923 Rocket 4.0 06:23:50 67° SW 06:24:27 77° WNW 06:29:49 10° NNE
Meteor 1-26 Rocket 4.4 06:22:26 10° NNW 06:28:23 68° W 06:29:13 60° SW
Cosmos 1812 4.4 06:27:21 10° N 06:29:29 29° NNE 06:29:29 29° NNE
USA 234 4.2 06:28:20 25° E 06:31:32 40° NNE 06:37:32 10° NW
Cosmos 1766 Rocket 4.1 06:33:08 57° NW 06:33:08 57° NW 06:36:52 10° N
Cosmos 1782 4.0 06:31:32 10° NNW 06:34:25 42° NW 06:34:25 42° NW
Cosmos 2056 Rocket 4.4 06:36:17 10° N 06:40:58 39° NE 06:40:58 39° NE
Cosmos 1417 Rocket 4.4 06:37:46 10° N 06:44:08 76° E 06:44:23 75° ESE
S3M 4.1 06:38:47 10° N 06:45:07 62° E 06:45:17 62° E
Meteor 2-14 Rocket 4.4 06:45:59 68° SW 06:46:39 76° W 06:52:49 10° N
Cosmos 1328 Rocket 4.5 06:44:52 10° N 06:48:09 48° NNW 06:48:09 48° NNW
Cosmos 2333 Rocket 4.1 06:46:46 10° N 06:50:36 18° NE 06:51:37 18° ENE
Cosmos 2360 Rocket 3.0 06:51:22 10° N 06:56:30 40° ENE 06:56:30 40° ENE
Cosmos 2112 Rocket 4.4 06:59:26 58° WNW 06:59:26 58° WNW 07:04:36 10° N
Cosmos 1151 Rocket 4.5 06:55:21 10° NNW 06:58:23 34° WNW 06:58:23 34° WNW
Cosmos 1680 Rocket 4.2 07:01:04 46° W 07:01:27 47° WNW 07:06:32 10° N
Cosmos 1371 Rocket 4.4 06:57:00 10° NNW 07:01:35 60° NNE 07:01:35 60° NNE
Cosmos 1980 Rocket 4.4 07:14:20 10° WNW 07:17:07 14° W 07:17:25 14° W
ISS -0.4 07:16:13 10° NW 07:16:28 12° NW 07:16:28 12° NW
Cosmos 2322 Rocket 2.7 07:20:01 10° NNW 07:24:34 55° WNW 07:24:34 55° WNW
Cosmos 2315 Rocket 4.1 07:41:30 10° N 07:47:14 72° NW 07:47:14 72° NW
COSMOS 2428 3.9 07:43:16 10° N 07:48:18 34° ENE 07:48:18 34° ENE
Meteor 1-27 Rocket 4.2 07:42:52 10° NNW 07:47:21 55° NW 07:47:21 55° NW
BREEZE-M DEB (TANK) 4.4 07:44:30 10° WNW 08:19:42 - SSE 07:49:06 50° SW
SL-16 R/B 3.7 07:45:42 10° NW 07:49:14 27° W 07:49:14 27° W
Cosmos 2219 Rocket 3.0 07:48:15 10° N 07:52:56 43° NE 07:52:56 43° NE
ATLAS 3B R/B 4.4 07:49:56 10° WNW 07:54:29 21° WSW 07:54:29 21° WSW
COSMOS 2455 3.2 08:10:42 61° NNW 08:10:42 61° NNW 08:15:58 10° NNE
USA 234 3.6 08:15:40 52° W 08:15:40 52° W 08:20:48 10° NW
Cosmos 1452 Rocket 4.5 08:09:04 10° NNW 08:12:39 45° NNW 08:12:39 45° NNW
Cosmos 1745 Rocket 4.2 08:30:11 64° NE 08:30:11 64° NE 08:35:36 10° N
ATLAS 5 CENTAUR R/B 3.6 08:28:42 10° NNW 08:33:59 37° NE 08:35:47 31° E
Lacrosse 5 4.0 08:37:08 18° ENE 08:37:08 18° ENE 08:38:35 10° ENE
Cosmos 2333 Rocket 3.1 08:29:46 10° NNW 08:33:36 43° NW 08:33:36 43° NW
Cosmos 2360 Rocket 4.0 08:35:51 10° NW 08:38:15 20° WNW 08:38:15 20° WNW
Resurs 1-4 Rocket 4.0 08:41:21 10° NE 08:44:30 21° E 08:44:30 21° E
SL-16 R/B 4.4 08:45:14 18° E 08:47:52 23° ENE 08:52:32 10° NNE
Nadezhda 1 Rocket 4.1 08:48:39 10° N 08:54:32 75° NNW 08:54:32 75° NNW
Cosmos 2297 Rocket 2.7 09:00:40 55° NE 09:00:40 55° NE 09:05:10 10° NNE
NOSS 3-1 (C) 4.2 08:58:20 10° NW 09:05:58 60° WSW 09:05:58 60° WSW
Cosmos 2237 Rocket 2.7 09:02:39 10° NNW 09:08:08 55° ENE 09:08:08 55° ENE
ASTEX 1 4.4 09:09:14 42° NE 09:09:14 42° NE 09:13:03 10° N
Cosmos 2227 Rocket 2.7 09:11:21 55° ENE 09:11:21 55° ENE 09:15:58 10° NNE
USA 229 DEB 3.8 09:10:08 10° NW 09:17:36 78° WSW 09:17:56 76° SW
USA 229 3.8 09:10:14 10° NW 09:17:42 78° WSW 09:18:04 76° SSW
ADEOS Rocket 4.5 09:16:08 21° E 09:18:20 27° ENE 09:22:51 10° NNE
CZ-2D R/B 2.8 09:18:55 10° NNE 09:23:40 48° E 09:23:40 48° E
ADEOS II 3.8 09:21:21 10° NE 09:25:29 23° E 09:25:41 23° E
Cosmos 2181 Rocket 4.2 09:21:15 10° N 09:27:32 63° E 09:28:07 60° ESE
Helios 1A 4.5 09:30:33 34° N 09:30:33 34° N 09:33:01 10° N
SL-16 R/B 3.8 09:27:04 10° N 09:32:01 30° ENE 09:35:34 16° ESE
COSMOS 2428 4.3 09:27:39 10° NW 09:30:17 23° WNW 09:30:17 23° WNW
Cosmos 2263 Rocket 4.2 09:36:12 16° ESE 09:37:05 17° E 09:40:37 10° ENE
Cosmos 2219 Rocket 4.2 09:33:00 10° NW 09:34:37 16° WNW 09:34:37 16° WNW
NOSS 3-1 (A) 4.1 09:30:18 10° NW 09:38:06 62° WSW 09:38:44 60° SW
Timation 1 Rocket 4.2 09:42:01 87° NNE 09:42:01 87° NNE 09:47:56 10° NNE
Cosmos 1992 Rocket 4.5 09:40:29 10° N 09:45:37 55° ENE 09:46:01 53° E
ATLAS 2A CENTAUR R/B 4.4 09:51:02 39° SSE 09:51:05 39° SSE 10:10:38 10° E
Helios 1B rocket 3.6 09:48:19 10° NNE 09:51:15 40° NE 09:51:15 40° NE
UNK 4.1 09:53:20 61° NE 09:53:20 61° NE 09:57:38 10° N
Cosmos 2219 3.8 09:58:27 46° WNW 09:58:36 46° WNW 10:04:08 10° N
Meteor 2-12 Rocket 4.4 10:00:55 66° SSE 10:01:44 77° E 10:07:51 10° N
BREEZE-M DEB (TANK) 3.9 10:03:48 61° WNW 10:04:39 80° SW 10:19:34 10° SE
Cosmos 1066 Rocket 4.5 10:00:07 10° NNW 10:05:34 56° W 10:05:34 56° W
Cosmos 2084 Rocket 4.5 10:02:36 10° NNW 10:05:26 41° NNW 10:05:26 41° NNW
IDEFIX/ARIANE 42P 3.6 10:11:03 10° NNE 10:15:50 37° E 10:17:13 31° SE
Timation 2 Rocket 4.2 10:16:09 46° W 10:16:56 49° WNW 10:22:48 10° NNE
Lacrosse 5 2.7 10:16:19 38° WNW 10:16:57 40° NW 10:21:44 10° NNE
Cosmos 2251 Rocket 3.4 10:17:02 73° W 10:17:10 73° WNW 10:22:28 10° NNE
Cosmos 2344 3.9 10:14:51 39° SSE 10:17:17 54° ESE 10:24:30 10° NE
ATLAS 5 CENTAUR R/B 3.2 10:13:07 10° NW 10:17:13 36° W 10:17:13 36° W
Cosmos 2082 3.7 10:18:14 64° WSW 10:18:47 69° WNW 10:24:31 10° NNE
Resurs 1-4 Rocket 2.6 10:20:20 10° N 10:25:19 43° WNW 10:25:34 42° WNW
Cosmos 1733 Rocket 3.2 10:27:32 68° NW 10:27:32 68° NW 10:31:38 10° N
Cosmos 2184 Rocket 4.0 10:28:58 53° WSW 10:30:02 61° W 10:36:15 10° N
SL-16 R/B 2.6 10:30:20 52° SW 10:31:00 54° WSW 10:37:03 10° NNW
SL-8 R/B 3.5 10:31:08 83° S 10:31:13 83° SE 10:36:02 10° ENE
USA 215 4.4 10:27:18 10° ENE 10:32:58 31° SE 10:35:19 25° SSE
Cosmos 1295 Rocket 4.4 10:33:38 47° S 10:35:34 87° E 10:41:43 10° N
Cosmos 1140 Rocket 3.7 10:34:56 48° SSE 10:36:10 62° ESE 10:41:21 10° NNE
Cosmos 2154 Rocket 3.9 10:35:29 51° SSW 10:37:10 79° W 10:43:23 10° N
AQUA 4.2 10:34:50 10° N 10:39:22 45° WNW 10:39:31 45° WNW
Cosmos 2297 Rocket 4.1 10:42:28 15° WNW 10:44:07 17° NW 10:47:46 10° NNW
Okean 2 3.7 10:40:03 10° N 10:44:11 62° E 10:45:11 46° SE
Meteor 1-21 4.4 10:38:50 10° N 10:44:37 72° E 10:48:10 25° SSE
NPP 4.4 10:41:25 10° N 10:46:17 36° WNW 10:47:07 34° W
MSX 4.2 10:44:38 10° NNE 10:50:17 59° E 10:53:13 28° S
Meteor 1-28 Rocket 3.0 10:51:21 83° WNW 10:51:21 83° WNW 10:55:00 10° NNW
Cosmos 2237 Rocket 4.0 10:47:57 10° WNW 10:49:54 16° WNW 10:49:54 16° WNW
ARIANE 5 R/B 3.7 10:47:50 10° NNE 10:52:39 38° E 10:56:00 18° SSE
Cosmos 2227 Rocket 4.0 10:53:09 16° WNW 10:54:54 18° NW 10:58:45 10° N
Cosmos 192 4.5 10:56:15 10° NNW 11:01:00 49° WSW 11:01:33 47° SW
Cosmos 1782 Rocket 4.3 11:00:41 26° SSE 11:02:49 48° E 11:07:01 10° NNE
ADEOS Rocket 3.3 11:03:05 35° WSW 11:03:43 36° W 11:08:47 10° NNW
CZ-2D R/B 3.7 10:59:54 10° NNW 11:03:48 21° WNW 11:04:59 19° W
ADEOS II 2.7 11:00:23 10° N 11:05:15 40° WNW 11:06:36 34° WSW
IRS-1D 3.8 11:03:26 10° N 11:08:13 49° WNW 11:09:38 38° WSW
Cosmos 1975 3.7 11:08:47 33° W 11:08:48 33° WNW 11:12:32 10° NNW
ATLAS CENTAUR R/B 1.2 11:09:58 52° S 11:10:41 69° ESE 11:14:32 10° NE
Landsat 4 4.3 11:08:30 10° N 11:11:56 38° WNW 11:12:04 37° WNW
Cosmos 2227 4.1 11:09:43 35° SSW 11:12:12 84° WNW 11:17:51 10° NNE
Iridium 4 Rocket 4.0 11:07:40 10° NNW 11:13:02 49° W 11:15:16 33° SW
SL-8 Rocket 4.0 11:09:37 21° S 11:13:53 79° E 11:20:03 10° N
IRS-1C 4.2 11:09:10 10° NNE 11:14:31 79° ESE 11:17:43 25° S
Cosmos 676 Rocket 4.2 11:12:58 26° S 11:15:58 68° ESE 11:21:17 10° NNE
SL-16 R/B 2.7 11:11:00 10° NW 11:16:07 36° WSW 11:17:20 33° SW
Cosmos 2366 rocket 4.3 11:11:29 15° S 11:16:44 68° E 11:23:02 10° NNE
Cosmos 1707 2.6 11:15:24 10° NNW 11:19:12 64° W 11:20:12 44° SSW
Cosmos 1461 3.9 11:17:51 31° W 11:19:17 39° NW 11:23:31 10° NNE
Cosmos 2263 Rocket 2.4 11:17:54 32° SW 11:20:24 60° WNW 11:26:03 10° NNE
NOSS 3-3 (A) 4.0 11:19:28 31° SW 11:22:14 63° NW 11:28:32 10° NNE
NOSS 3-3 (C) 4.0 11:19:35 31° SW 11:22:20 63° NW 11:28:38 10° NNE
Cosmos 407 Rocket 4.1 11:21:32 30° WSW 11:23:33 43° WNW 11:28:35 10° N
ALOS 4.2 11:25:02 10° NE 11:28:55 26° E 11:32:47 10° SSE
Spot 1 3.9 11:25:21 13° SSE 11:29:03 88° W 11:33:09 10° NNW
Cosmos 1733 4.1 11:27:50 14° SSE 11:30:56 46° E 11:34:37 10° NNE
GEOS 3 Rocket 4.4 11:27:26 10° SE 11:32:40 57° NE 11:37:53 10° NNW
CZ-4C R/B 3.1 11:27:10 10° NNW 11:34:47 88° SW 11:43:24 10° SSE
Cosmos 1238 Rocket 4.4 11:36:18 14° WNW 11:36:18 14° WNW 11:37:50 10° NW
SL-08 R/B 3.6 11:32:37 10° SSE 11:37:32 76° ENE 11:42:30 10° N
In-Cosmos 22 4.3 11:32:52 10° NNW 11:38:33 61° W 11:44:01 11° S
Cosmos 2341 Rocket 4.3 11:36:34 22° SW 11:40:23 49° W 11:46:24 10° N
Cosmos 2218 Rocket 4.0 11:37:15 15° SSW 11:42:34 74° W 11:48:56 10° N
Cosmos 1300 Rocket 4.0 11:38:51 10° S 11:43:05 59° E 11:47:22 10° NNE
Cosmos 1340 2.5 11:46:51 10° NNW 11:50:35 70° W 11:54:18 10° S
Cosmos 1975 Rocket 2.9 11:46:13 10° N 11:50:38 79° W 11:54:58 10° S
Cosmos 1727 Rocket 4.3 11:45:15 10° N 11:51:28 69° E 11:57:43 10° SSE
Milstar 3 3.8 11:49:18 17° SSW 11:53:21 29° SSE 11:59:10 10° ESE
Cosmos 1626 2.2 11:50:43 10° N 11:54:24 76° E 11:58:04 10° S
Cosmos 1400 Rocket 2.6 11:51:47 17° SSW 11:54:43 73° W 11:58:37 10° N
IDEFIX/ARIANE 42P 3.8 11:51:02 10° NNW 11:55:11 25° WNW 11:58:01 16° WSW
